Time,TemperatureF,DewpointF,PressureIn,WindDirection,WindDirectionDegrees,WindSpeedMPH,WindSpeedGustMPH,Humidity,HourlyPrecipIn,Conditions,Clouds,dailyrainin,SoftwareType,DateUTC
2013-05-12 01:00:00,58.3,52.0,30.03,West,259,0.0,0.0,79,0.00,,,0.00,Meteorologica,2013-05-12 05:00:00,
2013-05-12 01:01:00,52.3,37.9,30.17,West,279,0.0,0.0,57,0.00,,,0.00,Meteorologica,2013-05-12 05:01:00,
2013-05-12 01:02:00,52.1,37.7,30.17,West,279,0.0,0.0,57,0.00,,,0.00,Meteorologica,2013-05-12 05:02:00,
2013-05-12 01:03:00,52.1,37.6,30.17,West,279,0.0,0.0,57,0.00,,,0.00,Meteorologica,2013-05-12 05:03:00,
2013-05-12 01:04:00,52.0,37.6,30.17,West,279,0.0,0.0,57,0.00,,,0.00,Meteorologica,2013-05-12 05:04:00,
2013-05-12 01:05:00,58.1,51.9,30.03,West,259,0.0,0.0,79,0.00,,,0.00,Meteorologica,2013-05-12 05:05:00,
2013-05-12 01:06:00,52.0,37.6,30.17,West,279,0.0,0.0,57,0.00,,,0.00,Meteorologica,2013-05-12 05:06:00,
2013-05-12 01:07:00,52.0,37.8,30.17,West,279,0.0,0.0,58,0.00,,,0.00,Meteorologica,2013-05-12 05:07:00,
2013-05-12 01:08:00,51.9,38.0,30.17,West,279,0.0,0.0,58,0.00,,,0.00,Meteorologica,2013-05-12 05:08:00,
2013-05-12 01:09:00,51.9,38.0,30.17,West,279,0.0,0.0,58,0.00,,,0.00,Meteorologica,2013-05-12 05:09:00,
2013-05-12 01:10:00,57.8,51.6,30.03,West,259,0.0,0.0,79,0.00,,,0.00,Meteorologica,2013-05-12 05:10:00,
2013-05-12 01:11:00,51.9,38.1,30.18,West,279,0.0,0.0,59,0.00,,,0.00,Meteorologica,2013-05-12 05:11:00,
2013-05-12 01:12:00,51.7,37.9,30.17,West,279,0.0,0.0,59,0.00,,,0.00,Meteorologica,2013-05-12 05:12:00,
2013-05-12 01:13:00,51.7,38.0,30.18,West,279,0.0,0.0,59,0.00,,,0.00,Meteorologica,2013-05-12 05:13:00,
2013-05-12 01:14:00,51.7,38.0,30.18,West,279,0.0,0.0,59,0.00,,,0.00,Meteorologica,2013-05-12 05:14:00,
2013-05-12 01:15:00,57.7,51.7,30.03,West,259,0.0,0.0,80,0.00,,,0.00,Meteorologica,2013-05-12 05:15:00,
2013-05-12 01:16:00,51.6,38.1,30.17,West,279,0.0,0.0,59,0.00,,,0.00,Meteorologica,2013-05-12 05:16:00,
2013-05-12 01:17:00,51.6,38.2,30.17,West,279,0.0,0.0,59,0.00,,,0.00,Meteorologica,2013-05-12 05:17:00,
2013-05-12 01:18:00,51.4,38.1,30.17,West,279,0.0,0.0,60,0.00,,,0.00,Meteorologica,2013-05-12 05:18:00,
2013-05-12 01:19:00,51.3,38.0,30.18,West,279,0.0,0.0,60,0.00,,,0.00,Meteorologica,2013-05-12 05:19:00,
2013-05-12 01:20:00,57.4,52.2,30.03,West,259,0.0,0.0,82,0.00,,,0.00,Meteorologica,2013-05-12 05:20:00,
2013-05-12 01:21:00,51.4,38.2,30.18,West,279,0.0,0.0,60,0.00,,,0.00,Meteorologica,2013-05-12 05:21:00,
2013-05-12 01:22:00,51.4,38.5,30.18,West,279,0.0,0.0,61,0.00,,,0.00,Meteorologica,2013-05-12 05:22:00,
2013-05-12 01:23:00,51.3,38.5,30.17,West,279,0.0,0.0,61,0.00,,,0.00,Meteorologica,2013-05-12 05:23:00,
2013-05-12 01:24:00,51.2,38.5,30.18,West,279,0.0,0.0,61,0.00,,,0.00,Meteorologica,2013-05-12 05:24:00,
2013-05-12 01:25:00,57.0,51.8,30.03,West,259,0.0,0.0,82,0.00,,,0.00,Meteorologica,2013-05-12 05:25:00,
2013-05-12 01:26:00,51.1,38.3,30.18,West,279,0.0,0.0,61,0.00,,,0.00,Meteorologica,2013-05-12 05:26:00,
2013-05-12 01:27:00,51.1,38.4,30.18,West,279,0.0,0.0,61,0.00,,,0.00,Meteorologica,2013-05-12 05:27:00,
2013-05-12 01:28:00,51.1,38.4,30.18,West,279,0.0,0.0,61,0.00,,,0.00,Meteorologica,2013-05-12 05:28:00,
2013-05-12 01:29:00,51.0,38.3,30.18,West,279,0.0,0.0,61,0.00,,,0.00,Meteorologica,2013-05-12 05:29:00,
2013-05-12 01:30:00,57.0,51.8,30.03,West,259,0.0,0.0,82,0.00,,,0.00,Meteorologica,2013-05-12 05:30:00,
2013-05-12 01:31:00,50.9,38.4,30.18,West,279,0.0,0.0,61,0.00,,,0.00,Meteorologica,2013-05-12 05:31:00,
2013-05-12 01:32:00,51.0,38.5,30.18,West,279,0.0,0.0,61,0.00,,,0.00,Meteorologica,2013-05-12 05:32:00,
2013-05-12 01:33:00,50.9,38.2,30.18,West,279,0.0,0.0,61,0.00,,,0.00,Meteorologica,2013-05-12 05:33:00,
2013-05-12 01:34:00,50.8,38.1,30.18,West,279,0.0,0.0,61,0.00,,,0.00,Meteorologica,2013-05-12 05:34:00,
2013-05-12 01:35:00,57.1,51.9,30.03,West,259,0.0,0.0,82,0.00,,,0.00,Meteorologica,2013-05-12 05:35:00,
2013-05-12 01:36:00,50.8,38.4,30.18,West,279,0.0,0.0,62,0.00,,,0.00,Meteorologica,2013-05-12 05:36:00,
2013-05-12 01:37:00,50.8,38.3,30.18,West,279,0.0,0.0,61,0.00,,,0.00,Meteorologica,2013-05-12 05:37:00,
2013-05-12 01:38:00,50.7,38.2,30.18,West,279,0.0,0.0,61,0.00,,,0.00,Meteorologica,2013-05-12 05:38:00,
2013-05-12 01:39:00,50.6,38.2,30.18,West,279,0.0,0.0,62,0.00,,,0.00,Meteorologica,2013-05-12 05:39:00,
2013-05-12 01:40:00,50.6,38.2,30.17,West,279,0.0,0.0,62,0.00,,,0.00,Meteorologica,2013-05-12 05:40:00,
2013-05-12 01:41:00,57.2,52.0,30.03,West,259,0.0,0.0,82,0.00,,,0.00,Meteorologica,2013-05-12 05:41:00,
2013-05-12 01:42:00,50.5,38.2,30.17,West,279,0.0,0.0,62,0.00,,,0.00,Meteorologica,2013-05-12 05:42:00,
2013-05-12 01:43:00,50.5,38.4,30.18,West,279,0.0,0.0,62,0.00,,,0.00,Meteorologica,2013-05-12 05:43:00,
2013-05-12 01:44:00,50.4,38.3,30.18,West,279,0.0,0.0,62,0.00,,,0.00,Meteorologica,2013-05-12 05:44:00,
2013-05-12 01:45:00,50.4,38.4,30.17,West,279,0.0,0.0,63,0.00,,,0.00,Meteorologica,2013-05-12 05:45:00,
2013-05-12 01:46:00,57.2,52.3,30.04,West,259,0.0,0.0,83,0.00,,,0.00,Meteorologica,2013-05-12 05:46:00,
2013-05-12 01:47:00,50.3,38.2,30.17,West,279,0.0,0.0,62,0.00,,,0.00,Meteorologica,2013-05-12 05:47:00,
2013-05-12 01:48:00,50.4,38.3,30.17,West,279,0.0,0.0,62,0.00,,,0.00,Meteorologica,2013-05-12 05:48:00,
2013-05-12 01:49:00,50.2,37.9,30.17,West,279,0.0,0.0,62,0.00,,,0.00,Meteorologica,2013-05-12 05:49:00,
2013-05-12 01:50:00,50.2,37.9,30.17,West,279,0.0,0.0,62,0.00,,,0.00,Meteorologica,2013-05-12 05:50:00,
2013-05-12 01:51:00,57.1,52.3,30.03,West,259,0.0,0.0,83,0.00,,,0.00,Meteorologica,2013-05-12 05:51:00,
2013-05-12 01:52:00,50.1,37.7,30.17,West,279,0.0,0.0,62,0.00,,,0.00,Meteorologica,2013-05-12 05:52:00,
2013-05-12 01:53:00,50.1,37.6,30.18,West,279,0.0,0.0,61,0.00,,,0.00,Meteorologica,2013-05-12 05:53:00,
2013-05-12 01:54:00,50.1,37.5,30.18,West,279,0.0,0.0,61,0.00,,,0.00,Meteorologica,2013-05-12 05:54:00,
2013-05-12 01:55:00,50.1,37.5,30.18,West,279,0.0,0.0,61,0.00,,,0.00,Meteorologica,2013-05-12 05:55:00,
2013-05-12 01:56:00,57.2,52.3,30.04,West,259,0.0,0.0,83,0.00,,,0.00,Meteorologica,2013-05-12 05:56:00,
2013-05-12 01:57:00,50.0,37.5,30.18,West,279,0.0,0.0,61,0.00,,,0.00,Meteorologica,2013-05-12 05:57:00,
2013-05-12 01:58:00,50.0,37.6,30.18,West,279,0.0,0.0,62,0.00,,,0.00,Meteorologica,2013-05-12 05:58:00,
2013-05-12 01:59:00,50.0,37.7,30.18,West,279,0.0,0.0,62,0.00,,,0.00,Meteorologica,2013-05-12 05:59:00,
2013-05-12 02:01:00,57.1,52.4,30.03,West,259,0.0,0.0,84,0.00,,,0.00,Meteorologica,2013-05-12 06:01:00,
2013-05-12 02:06:00,56.9,52.4,30.03,West,259,0.0,0.0,84,0.00,,,0.00,Meteorologica,2013-05-12 06:06:00,
2013-05-12 02:11:00,56.8,52.4,30.03,West,259,0.0,0.0,85,0.00,,,0.00,Meteorologica,2013-05-12 06:11:00,
2013-05-12 02:16:00,56.6,52.6,30.03,West,259,0.0,0.0,86,0.00,,,0.00,Meteorologica,2013-05-12 06:16:00,
2013-05-12 02:21:00,56.4,52.7,30.03,West,259,0.0,0.0,87,0.00,,,0.00,Meteorologica,2013-05-12 06:21:00,
2013-05-12 02:26:00,56.2,53.2,30.03,West,259,0.0,0.0,89,0.00,,,0.00,Meteorologica,2013-05-12 06:26:00,
2013-05-12 02:31:00,55.9,53.4,30.03,West,259,0.0,0.0,91,0.00,,,0.00,Meteorologica,2013-05-12 06:31:00,
2013-05-12 02:36:00,55.8,54.1,30.03,West,259,0.0,0.0,94,0.00,,,0.00,Meteorologica,2013-05-12 06:36:00,
2013-05-12 02:41:00,55.6,54.5,30.03,West,259,0.0,0.0,96,0.00,,,0.00,Meteorologica,2013-05-12 06:41:00,
2013-05-12 02:46:00,55.6,54.9,30.03,West,259,0.0,0.0,97,0.00,,,0.00,Meteorologica,2013-05-12 06:46:00,
2013-05-12 02:51:00,55.6,55.6,30.03,West,259,0.0,0.0,100,0.00,,,0.00,Meteorologica,2013-05-12 06:51:00,
2013-05-12 02:56:00,55.6,55.6,30.03,West,259,0.0,0.0,100,0.00,,,0.00,Meteorologica,2013-05-12 06:56:00,
2013-05-12 03:01:00,55.4,55.4,30.02,West,259,0.0,0.0,100,0.00,,,0.00,Meteorologica,2013-05-12 07:01:00,
2013-05-12 03:07:00,55.5,55.5,30.02,West,259,0.0,0.0,100,0.00,,,0.00,Meteorologica,2013-05-12 07:07:00,
2013-05-12 03:12:00,55.4,55.4,30.03,West,259,0.0,0.0,100,0.00,,,0.00,Meteorologica,2013-05-12 07:12:00,
2013-05-12 03:17:00,55.5,55.5,30.03,West,259,0.0,0.0,100,0.00,,,0.00,Meteorologica,2013-05-12 07:17:00,
2013-05-12 03:23:00,55.6,55.6,30.03,West,259,0.0,0.0,100,0.00,,,0.00,Meteorologica,2013-05-12 07:23:00,
2013-05-12 03:28:00,55.6,55.6,30.02,West,259,0.0,0.0,100,0.00,,,0.00,Meteorologica,2013-05-12 07:28:00,
2013-05-12 03:33:00,55.7,55.7,30.02,West,259,0.0,0.0,100,0.00,,,0.00,Meteorologica,2013-05-12 07:33:00,
2013-05-12 03:38:00,55.7,55.7,30.02,West,259,0.0,0.0,100,0.00,,,0.00,Meteorologica,2013-05-12 07:38:00,
2013-05-12 04:00:00,56.4,55.9,30.03,NE,40,0.5,9.7,98,0.00,,,0.00,Meteorologica,2013-05-12 08:00:00,
2013-05-12 04:05:00,56.7,54.7,30.03,NE,52,2.3,6.3,93,0.00,,,0.00,Meteorologica,2013-05-12 08:05:00,
2013-05-12 05:00:00,57.1,48.2,30.04,NNE,31,2.1,7.6,71,0.00,,,0.00,Meteorologica,2013-05-12 09:00:00,
2013-05-12 05:05:00,56.9,47.8,30.04,NE,46,0.2,5.7,71,0.00,,,0.00,Meteorologica,2013-05-12 09:05:00,
2013-05-12 06:00:00,55.6,43.7,30.05,NNE,32,0.0,2.7,63,0.00,,,0.00,Meteorologica,2013-05-12 10:00:00,
2013-05-12 06:05:00,55.3,43.2,30.05,North,5,0.0,3.3,63,0.00,,,0.00,Meteorologica,2013-05-12 10:05:00,
2013-05-12 07:00:00,53.6,41.3,30.08,NNE,28,0.0,5.1,62,0.00,,,0.00,Meteorologica,2013-05-12 11:00:00,
2013-05-12 07:05:00,53.6,41.5,30.08,NNE,19,0.0,3.5,63,0.00,,,0.00,Meteorologica,2013-05-12 11:05:00,
2013-05-12 07:10:00,53.5,41.8,30.09,NNE,19,0.0,0.0,64,0.00,,,0.00,Meteorologica,2013-05-12 11:10:00,
2013-05-12 07:15:00,53.5,42.3,30.09,NNE,18,0.0,1.4,65,0.00,,,0.00,Meteorologica,2013-05-12 11:15:00,
2013-05-12 08:00:00,52.8,40.2,30.11,North,9,0.9,1.9,62,0.00,,,0.00,Meteorologica,2013-05-12 12:00:00,
2013-05-12 08:05:00,52.7,40.3,30.11,NE,49,0.1,7.3,62,0.00,,,0.00,Meteorologica,2013-05-12 12:05:00,
2013-05-12 08:10:00,52.6,39.6,30.11,NE,52,0.0,5.5,60,0.00,,,0.00,Meteorologica,2013-05-12 12:10:00,
2013-05-12 08:15:00,52.5,39.8,30.11,NE,40,0.1,2.4,61,0.00,,,0.00,Meteorologica,2013-05-12 12:15:00,
2013-05-12 08:20:00,52.6,39.0,30.11,ESE,109,1.7,5.4,59,0.00,,,0.00,Meteorologica,2013-05-12 12:20:00,
2013-05-12 08:25:00,52.5,38.6,30.11,NE,40,0.0,5.1,58,0.00,,,0.00,Meteorologica,2013-05-12 12:25:00,
2013-05-12 08:30:00,52.7,39.0,30.11,NE,50,1.1,4.0,59,0.00,,,0.00,Meteorologica,2013-05-12 12:30:00,
2013-05-12 08:35:00,52.6,38.8,30.11,NE,42,1.6,4.4,59,0.00,,,0.00,Meteorologica,2013-05-12 12:35:00,
2013-05-12 08:40:00,52.5,37.4,30.11,NE,36,2.4,4.3,56,0.00,,,0.00,Meteorologica,2013-05-12 12:40:00,
2013-05-12 08:45:00,52.8,38.6,30.11,NE,35,0.0,4.2,58,0.00,,,0.00,Meteorologica,2013-05-12 12:45:00,
2013-05-12 08:50:00,52.7,37.8,30.11,NE,46,1.3,0.0,56,0.00,,,0.00,Meteorologica,2013-05-12 12:50:00,
2013-05-12 08:55:00,52.8,37.5,30.11,NE,52,1.9,5.1,55,0.00,,,0.00,Meteorologica,2013-05-12 12:55:00,
2013-05-12 09:01:00,52.9,37.0,30.11,NE,52,2.2,4.8,54,0.00,,,0.00,Meteorologica,2013-05-12 13:01:00,
2013-05-12 09:06:00,53.0,36.7,30.12,ENE,60,1.1,3.6,53,0.00,,,0.00,Meteorologica,2013-05-12 13:06:00,
2013-05-12 09:11:00,53.1,37.2,30.12,ESE,108,0.3,3.2,54,0.00,,,0.00,Meteorologica,2013-05-12 13:11:00,
2013-05-12 09:16:00,53.2,37.5,30.12,East,81,0.0,3.0,54,0.00,,,0.00,Meteorologica,2013-05-12 13:16:00,
2013-05-12 09:21:00,53.4,37.0,30.12,NE,47,3.0,5.2,53,0.00,,,0.00,Meteorologica,2013-05-12 13:21:00,
2013-05-12 09:26:00,53.5,37.2,30.12,ENE,74,1.0,4.8,53,0.00,,,0.00,Meteorologica,2013-05-12 13:26:00,
2013-05-12 09:31:00,53.7,37.3,30.12,North,0,2.5,4.0,53,0.00,,,0.00,Meteorologica,2013-05-12 13:31:00,
2013-05-12 09:36:00,53.7,36.1,30.12,NNE,32,3.9,7.3,51,0.00,,,0.00,Meteorologica,2013-05-12 13:36:00,
2013-05-12 09:41:00,53.8,34.7,30.12,ENE,66,5.2,5.7,48,0.00,,,0.00,Meteorologica,2013-05-12 13:41:00,
2013-05-12 09:46:00,54.0,35.3,30.12,ENE,57,3.3,7.7,49,0.00,,,0.00,Meteorologica,2013-05-12 13:46:00,
2013-05-12 09:51:00,54.2,35.8,30.12,ENE,73,1.8,5.9,49,0.00,,,0.00,Meteorologica,2013-05-12 13:51:00,
2013-05-12 09:56:00,54.4,35.5,30.12,North,5,2.7,4.8,48,0.00,,,0.00,Meteorologica,2013-05-12 13:56:00,
2013-05-12 10:01:00,54.5,35.6,30.12,NNE,29,1.0,4.8,48,0.00,,,0.00,Meteorologica,2013-05-12 14:01:00,
2013-05-12 10:06:00,54.7,35.5,30.12,NNE,24,3.6,6.1,48,0.00,,,0.00,Meteorologica,2013-05-12 14:06:00,
2013-05-12 10:11:00,54.8,34.9,30.12,NE,53,2.0,6.6,46,0.00,,,0.00,Meteorologica,2013-05-12 14:11:00,
2013-05-12 10:16:00,55.1,36.0,30.12,ENE,76,2.4,5.8,48,0.00,,,0.00,Meteorologica,2013-05-12 14:16:00,
2013-05-12 10:21:00,55.2,36.7,30.13,East,93,1.3,4.9,49,0.00,,,0.00,Meteorologica,2013-05-12 14:21:00,
2013-05-12 10:26:00,55.6,36.6,30.13,ENE,69,2.2,3.3,48,0.00,,,0.00,Meteorologica,2013-05-12 14:26:00,
2013-05-12 10:31:00,55.7,36.1,30.13,ENE,64,0.4,6.0,47,0.00,,,0.00,Meteorologica,2013-05-12 14:31:00,
2013-05-12 10:36:00,55.6,36.5,30.13,ENE,68,0.8,5.0,48,0.00,,,0.00,Meteorologica,2013-05-12 14:36:00,
2013-05-12 10:41:00,55.8,36.4,30.13,East,97,1.1,3.1,48,0.00,,,0.00,Meteorologica,2013-05-12 14:41:00,
2013-05-12 10:46:00,55.8,36.3,30.13,East,95,2.8,3.4,47,0.00,,,0.00,Meteorologica,2013-05-12 14:46:00,
2013-05-12 10:51:00,55.9,35.8,30.13,NE,34,2.4,5.0,46,0.00,,,0.00,Meteorologica,2013-05-12 14:51:00,
2013-05-12 11:00:00,56.0,35.8,30.13,NNE,21,0.0,6.0,46,0.00,,,0.00,Meteorologica,2013-05-12 15:00:00,
2013-05-12 11:05:00,56.3,36.0,30.14,ENE,73,3.1,6.5,46,0.00,,,0.00,Meteorologica,2013-05-12 15:05:00,
2013-05-12 11:10:00,56.5,35.6,30.14,NNW,340,0.1,5.6,45,0.00,,,0.00,Meteorologica,2013-05-12 15:10:00,
2013-05-12 11:15:00,56.5,34.5,30.14,NE,52,1.9,4.2,43,0.00,,,0.00,Meteorologica,2013-05-12 15:15:00,
2013-05-12 11:20:00,56.7,35.8,30.14,North,0,0.0,4.8,45,0.00,,,0.00,Meteorologica,2013-05-12 15:20:00,
2013-05-12 11:25:00,56.9,34.8,30.14,ENE,60,1.4,3.5,43,0.00,,,0.00,Meteorologica,2013-05-12 15:25:00,
2013-05-12 11:30:00,57.0,34.7,30.14,WSW,242,0.1,4.3,43,0.00,,,0.00,Meteorologica,2013-05-12 15:30:00,
2013-05-12 11:35:00,57.5,35.8,30.14,NNW,330,0.0,2.7,44,0.00,,,0.00,Meteorologica,2013-05-12 15:35:00,
2013-05-12 11:40:00,58.0,35.2,30.14,NW,317,0.0,4.3,42,0.00,,,0.00,Meteorologica,2013-05-12 15:40:00,
2013-05-12 11:45:00,58.9,36.0,30.14,WNW,283,2.6,5.0,42,0.00,,,0.00,Meteorologica,2013-05-12 15:45:00,
2013-05-12 11:50:00,59.5,33.6,30.14,NW,311,1.7,3.2,37,0.00,,,0.00,Meteorologica,2013-05-12 15:50:00,
2013-05-12 11:55:00,59.6,32.7,30.14,NW,315,1.5,3.3,36,0.00,,,0.00,Meteorologica,2013-05-12 15:55:00,
2013-05-12 12:00:00,59.5,32.6,30.14,NE,35,3.5,6.0,36,0.00,,,0.00,Meteorologica,2013-05-12 16:00:00,
2013-05-12 12:05:00,59.0,31.9,30.14,NE,36,1.6,4.9,35,0.00,,,0.00,Meteorologica,2013-05-12 16:05:00,
2013-05-12 12:10:00,58.9,31.6,30.14,NNE,22,3.8,4.9,35,0.00,,,0.00,Meteorologica,2013-05-12 16:10:00,
2013-05-12 12:15:00,58.9,32.4,30.14,North,7,0.0,5.0,36,0.00,,,0.00,Meteorologica,2013-05-12 16:15:00,
2013-05-12 12:20:00,59.1,33.8,30.14,ESE,108,1.4,3.4,38,0.00,,,0.00,Meteorologica,2013-05-12 16:20:00,
2013-05-12 12:25:00,59.6,33.9,30.14,NE,40,0.0,9.1,38,0.00,,,0.00,Meteorologica,2013-05-12 16:25:00,
2013-05-12 12:30:00,59.7,32.8,30.14,North,1,1.7,3.5,37,0.00,,,0.00,Meteorologica,2013-05-12 16:30:00,
2013-05-12 12:35:00,59.9,32.4,30.14,NE,50,3.5,6.0,35,0.00,,,0.00,Meteorologica,2013-05-12 16:35:00,
2013-05-12 12:40:00,59.9,33.5,30.14,NNW,344,1.3,4.6,37,0.00,,,0.00,Meteorologica,2013-05-12 16:40:00,
2013-05-12 12:45:00,59.8,31.1,30.14,NE,35,3.0,5.0,33,0.00,,,0.00,Meteorologica,2013-05-12 16:45:00,
2013-05-12 12:50:00,59.9,33.2,30.14,NNE,33,0.4,4.0,36,0.00,,,0.00,Meteorologica,2013-05-12 16:50:00,
2013-05-12 12:55:00,60.0,32.5,30.14,NE,42,2.6,6.0,35,0.00,,,0.00,Meteorologica,2013-05-12 16:55:00,
2013-05-12 13:00:00,60.4,33.6,30.14,NNW,348,0.0,4.0,36,0.00,,,0.00,Meteorologica,2013-05-12 17:00:00,
2013-05-12 13:05:00,60.3,33.2,30.14,NE,39,1.9,3.0,36,0.00,,,0.00,Meteorologica,2013-05-12 17:05:00,
2013-05-12 13:10:00,60.5,32.5,30.14,NNE,18,2.4,6.3,34,0.00,,,0.00,Meteorologica,2013-05-12 17:10:00,
2013-05-12 13:15:00,60.4,30.7,30.14,NE,54,3.6,3.8,32,0.00,,,0.00,Meteorologica,2013-05-12 17:15:00,
2013-05-12 13:20:00,60.6,33.4,30.14,NW,323,0.0,4.5,36,0.00,,,0.00,Meteorologica,2013-05-12 17:20:00,
2013-05-12 13:25:00,60.7,34.2,30.13,SSW,209,2.4,3.9,37,0.00,,,0.00,Meteorologica,2013-05-12 17:25:00,
2013-05-12 13:30:00,61.3,33.5,30.13,NE,49,1.1,6.3,35,0.00,,,0.00,Meteorologica,2013-05-12 17:30:00,
2013-05-12 13:35:00,61.7,33.3,30.13,NNE,19,1.5,5.3,34,0.00,,,0.00,Meteorologica,2013-05-12 17:35:00,
2013-05-12 13:40:00,61.9,32.9,30.13,NNE,26,1.3,6.0,33,0.00,,,0.00,Meteorologica,2013-05-12 17:40:00,
2013-05-12 13:45:00,61.9,32.7,30.13,NE,36,0.0,3.8,33,0.00,,,0.00,Meteorologica,2013-05-12 17:45:00,
2013-05-12 13:50:00,62.4,32.7,30.13,WNW,283,2.2,7.0,32,0.00,,,0.00,Meteorologica,2013-05-12 17:50:00,
2013-05-12 13:56:00,62.8,32.5,30.13,NNE,12,0.0,4.6,32,0.00,,,0.00,Meteorologica,2013-05-12 17:56:00,
2013-05-12 14:01:00,63.2,33.5,30.13,SE,135,1.1,6.0,33,0.00,,,0.00,Meteorologica,2013-05-12 18:01:00,
2013-05-12 14:06:00,63.0,32.8,30.13,NNE,22,0.9,3.2,32,0.00,,,0.00,Meteorologica,2013-05-12 18:06:00,
2013-05-12 14:11:00,62.8,32.3,30.13,SSE,152,2.2,6.0,31,0.00,,,0.00,Meteorologica,2013-05-12 18:11:00,
2013-05-12 14:16:00,62.7,32.8,30.13,SE,128,0.0,4.5,32,0.00,,,0.00,Meteorologica,2013-05-12 18:16:00,
2013-05-12 14:21:00,62.5,33.1,30.12,NE,50,2.7,5.5,33,0.00,,,0.00,Meteorologica,2013-05-12 18:21:00,
2013-05-12 14:26:00,62.5,33.1,30.12,NNE,15,0.0,4.1,33,0.00,,,0.00,Meteorologica,2013-05-12 18:26:00,
2013-05-12 14:31:00,62.4,33.5,30.12,ENE,59,0.1,4.3,34,0.00,,,0.00,Meteorologica,2013-05-12 18:31:00,
2013-05-12 14:36:00,62.4,33.1,30.12,NE,38,2.0,3.2,33,0.00,,,0.00,Meteorologica,2013-05-12 18:36:00,
2013-05-12 14:41:00,62.7,32.9,30.12,NW,306,2.9,5.5,32,0.00,,,0.00,Meteorologica,2013-05-12 18:41:00,
2013-05-12 14:46:00,63.2,33.3,30.12,NE,47,0.0,8.4,33,0.00,,,0.00,Meteorologica,2013-05-12 18:46:00,
2013-05-12 14:51:00,63.2,32.2,30.12,North,5,1.7,4.4,31,0.00,,,0.00,Meteorologica,2013-05-12 18:51:00,
2013-05-12 14:56:00,63.2,30.1,30.11,NE,42,1.2,3.9,28,0.00,,,0.00,Meteorologica,2013-05-12 18:56:00,
2013-05-12 15:01:00,63.7,32.2,30.11,WNW,284,2.1,4.8,30,0.00,,,0.00,Meteorologica,2013-05-12 19:01:00,
2013-05-12 15:06:00,63.9,33.4,30.11,NNW,344,2.5,5.5,32,0.00,,,0.00,Meteorologica,2013-05-12 19:06:00,
2013-05-12 15:11:00,63.7,29.1,30.10,NE,37,3.7,4.5,27,0.00,,,0.00,Meteorologica,2013-05-12 19:11:00,
2013-05-12 15:16:00,63.5,31.9,30.10,WNW,295,0.2,5.5,30,0.00,,,0.00,Meteorologica,2013-05-12 19:16:00,
2013-05-12 15:21:00,63.5,33.2,30.10,NW,305,0.0,3.4,31,0.00,,,0.00,Meteorologica,2013-05-12 19:21:00,
2013-05-12 15:26:00,63.7,32.0,30.10,NNW,329,2.1,5.3,30,0.00,,,0.00,Meteorologica,2013-05-12 19:26:00,
2013-05-12 15:31:00,63.7,33.6,30.10,NE,36,0.0,5.6,32,0.00,,,0.00,Meteorologica,2013-05-12 19:31:00,
2013-05-12 15:36:00,63.9,33.0,30.09,ENE,57,3.2,4.6,31,0.00,,,0.00,Meteorologica,2013-05-12 19:36:00,
2013-05-12 15:41:00,63.6,32.0,30.10,NE,52,1.1,6.4,30,0.00,,,0.00,Meteorologica,2013-05-12 19:41:00,
2013-05-12 15:46:00,63.7,32.3,30.09,ENE,63,0.0,4.3,30,0.00,,,0.00,Meteorologica,2013-05-12 19:46:00,
2013-05-12 15:51:00,64.0,34.5,30.09,SW,215,1.2,0.0,33,0.00,,,0.00,Meteorologica,2013-05-12 19:51:00,
2013-05-12 15:56:00,64.1,31.7,30.09,NNE,33,1.4,5.6,29,0.00,,,0.00,Meteorologica,2013-05-12 19:56:00,
2013-05-12 16:01:00,64.6,31.5,30.09,NNE,24,0.2,3.7,29,0.00,,,0.00,Meteorologica,2013-05-12 20:01:00,
2013-05-12 16:06:00,64.5,31.7,30.09,North,10,0.8,3.6,29,0.00,,,0.00,Meteorologica,2013-05-12 20:06:00,
2013-05-12 16:11:00,64.4,33.3,30.09,NW,310,2.0,6.4,31,0.00,,,0.00,Meteorologica,2013-05-12 20:11:00,
2013-05-12 16:16:00,64.4,31.6,30.09,NW,322,2.1,4.3,29,0.00,,,0.00,Meteorologica,2013-05-12 20:16:00,
2013-05-12 16:21:00,64.3,33.0,30.09,NW,320,2.1,4.5,31,0.00,,,0.00,Meteorologica,2013-05-12 20:21:00,
2013-05-12 16:26:00,64.4,32.6,30.09,NW,316,0.7,4.7,30,0.00,,,0.00,Meteorologica,2013-05-12 20:26:00,
2013-05-12 16:31:00,64.3,32.0,30.09,NW,321,3.3,4.6,29,0.00,,,0.00,Meteorologica,2013-05-12 20:31:00,
2013-05-12 16:36:00,64.3,33.5,30.09,WSW,238,0.2,4.9,31,0.00,,,0.00,Meteorologica,2013-05-12 20:36:00,
2013-05-12 16:41:00,64.3,31.2,30.09,NNE,31,0.6,2.5,29,0.00,,,0.00,Meteorologica,2013-05-12 20:41:00,
2013-05-12 16:46:00,64.6,33.6,30.09,NNW,348,1.1,4.6,31,0.00,,,0.00,Meteorologica,2013-05-12 20:46:00,
2013-05-12 16:51:00,64.7,32.5,30.10,ENE,77,2.2,4.9,30,0.00,,,0.00,Meteorologica,2013-05-12 20:51:00,
2013-05-12 16:56:00,64.8,31.4,30.10,NNE,21,2.2,4.9,28,0.00,,,0.00,Meteorologica,2013-05-12 20:56:00,
2013-05-12 17:01:00,65.1,33.6,30.10,WNW,293,2.1,7.4,30,0.00,,,0.00,Meteorologica,2013-05-12 21:01:00,
2013-05-12 17:07:00,65.0,32.0,30.10,NE,48,1.9,3.7,29,0.00,,,0.00,Meteorologica,2013-05-12 21:07:00,
2013-05-12 17:12:00,64.8,31.9,30.10,East,83,2.0,5.1,29,0.00,,,0.00,Meteorologica,2013-05-12 21:12:00,
2013-05-12 17:17:00,64.6,33.4,30.10,NE,43,1.5,5.5,31,0.00,,,0.00,Meteorologica,2013-05-12 21:17:00,
2013-05-12 17:22:00,64.4,34.0,30.10,ENE,67,0.0,9.2,32,0.00,,,0.00,Meteorologica,2013-05-12 21:22:00,
2013-05-12 17:28:00,64.4,33.1,30.10,ENE,71,1.6,2.5,31,0.00,,,0.00,Meteorologica,2013-05-12 21:28:00,
2013-05-12 17:33:00,64.2,32.1,30.11,ENE,67,2.1,3.0,30,0.00,,,0.00,Meteorologica,2013-05-12 21:33:00,
2013-05-12 17:38:00,64.0,32.7,30.10,ENE,64,0.0,4.2,31,0.00,,,0.00,Meteorologica,2013-05-12 21:38:00,
2013-05-12 17:43:00,64.1,33.8,30.10,WSW,252,1.9,1.9,32,0.00,,,0.00,Meteorologica,2013-05-12 21:43:00,
2013-05-12 17:49:00,64.2,33.8,30.11,NW,323,1.1,5.6,32,0.00,,,0.00,Meteorologica,2013-05-12 21:49:00,
2013-05-12 18:00:00,64.2,34.1,30.10,NW,320,0.0,4.2,32,0.00,,,0.00,Meteorologica,2013-05-12 22:00:00,
2013-05-12 18:05:00,64.0,34.6,30.11,NNE,31,0.0,4.4,33,0.00,,,0.00,Meteorologica,2013-05-12 22:05:00,
2013-05-12 18:10:00,64.1,34.9,30.11,NE,35,1.9,4.5,33,0.00,,,0.00,Meteorologica,2013-05-12 22:10:00,
2013-05-12 18:16:00,64.3,35.2,30.10,ESE,116,1.0,4.9,34,0.00,,,0.00,Meteorologica,2013-05-12 22:16:00,
2013-05-12 18:21:00,64.2,35.1,30.10,South,169,0.2,6.3,34,0.00,,,0.00,Meteorologica,2013-05-12 22:21:00,
2013-05-12 19:00:00,62.8,32.6,30.11,WSW,242,0.0,2.2,32,0.00,,,0.00,Meteorologica,2013-05-12 23:00:00,
2013-05-12 19:05:00,62.6,33.5,30.11,WSW,242,0.0,0.0,34,0.00,,,0.00,Meteorologica,2013-05-12 23:05:00,
2013-05-12 19:10:00,62.3,33.8,30.11,West,266,0.0,3.7,34,0.00,,,0.00,Meteorologica,2013-05-12 23:10:00,
2013-05-12 19:15:00,62.2,33.4,30.11,West,266,0.0,0.0,34,0.00,,,0.00,Meteorologica,2013-05-12 23:15:00,
2013-05-12 20:00:00,60.6,33.7,30.11,NNE,18,1.4,3.8,36,0.00,,,0.00,Meteorologica,2013-05-13 00:00:00,
2013-05-12 20:05:00,60.4,34.3,30.11,ESE,103,0.0,1.7,37,0.00,,,0.00,Meteorologica,2013-05-13 00:05:00,
2013-05-12 20:10:00,60.2,34.1,30.12,ESE,108,0.3,0.0,37,0.00,,,0.00,Meteorologica,2013-05-13 00:10:00,
2013-05-12 20:15:00,60.0,33.9,30.11,ENE,71,0.0,2.1,37,0.00,,,0.00,Meteorologica,2013-05-13 00:15:00,
2013-05-12 20:20:00,59.9,33.9,30.12,ENE,71,0.0,0.0,37,0.00,,,0.00,Meteorologica,2013-05-13 00:20:00,
2013-05-12 20:25:00,59.8,34.2,30.12,ENE,71,0.0,0.0,38,0.00,,,0.00,Meteorologica,2013-05-13 00:25:00,
2013-05-12 20:30:00,59.6,34.3,30.12,ENE,71,0.0,0.0,38,0.00,,,0.00,Meteorologica,2013-05-13 00:30:00,
2013-05-12 20:35:00,59.5,34.6,30.13,ENE,71,0.0,0.0,39,0.00,,,0.00,Meteorologica,2013-05-13 00:35:00,
2013-05-12 20:40:00,59.3,34.9,30.13,North,351,0.0,7.0,40,0.00,,,0.00,Meteorologica,2013-05-13 00:40:00,
2013-05-12 20:45:00,59.0,34.8,30.13,North,351,0.0,0.0,40,0.00,,,0.00,Meteorologica,2013-05-13 00:45:00,
2013-05-12 20:50:00,59.0,35.1,30.13,North,351,0.0,0.0,40,0.00,,,0.00,Meteorologica,2013-05-13 00:50:00,
2013-05-12 20:56:00,58.8,35.8,30.13,North,351,0.0,0.0,41,0.00,,,0.00,Meteorologica,2013-05-13 00:56:00,
2013-05-12 21:01:00,58.4,36.1,30.13,North,351,0.0,0.0,43,0.00,,,0.00,Meteorologica,2013-05-13 01:01:00,
2013-05-12 21:06:00,58.1,36.0,30.13,North,351,0.0,0.0,43,0.00,,,0.00,Meteorologica,2013-05-13 01:06:00,
2013-05-12 21:11:00,57.8,38.1,30.13,North,351,0.0,0.0,47,0.00,,,0.00,Meteorologica,2013-05-13 01:11:00,
2013-05-12 21:16:00,57.6,36.5,30.13,North,351,0.0,0.0,45,0.00,,,0.00,Meteorologica,2013-05-13 01:16:00,
2013-05-12 21:21:00,57.3,35.5,30.13,North,351,0.0,0.0,44,0.00,,,0.00,Meteorologica,2013-05-13 01:21:00,
2013-05-12 21:26:00,57.2,36.3,30.13,North,351,0.0,0.0,45,0.00,,,0.00,Meteorologica,2013-05-13 01:26:00,
2013-05-12 21:31:00,56.9,36.8,30.13,North,351,0.0,0.0,47,0.00,,,0.00,Meteorologica,2013-05-13 01:31:00,
2013-05-12 21:36:00,56.8,35.9,30.13,North,351,0.0,0.0,45,0.00,,,0.00,Meteorologica,2013-05-13 01:36:00,
2013-05-12 21:41:00,56.6,35.4,30.14,West,279,0.0,2.0,44,0.00,,,0.00,Meteorologica,2013-05-13 01:41:00,
2013-05-12 21:46:00,56.5,35.0,30.14,West,279,0.0,0.0,44,0.00,,,0.00,Meteorologica,2013-05-13 01:46:00,
2013-05-12 21:51:00,56.4,35.2,30.14,West,279,0.0,0.0,44,0.00,,,0.00,Meteorologica,2013-05-13 01:51:00,
2013-05-12 21:56:00,56.4,35.8,30.14,West,279,0.0,0.0,46,0.00,,,0.00,Meteorologica,2013-05-13 01:56:00,
2013-05-12 22:01:00,56.3,36.3,30.14,West,279,0.0,0.0,47,0.00,,,0.00,Meteorologica,2013-05-13 02:01:00,
2013-05-12 22:06:00,56.1,36.5,30.14,West,279,0.0,0.0,47,0.00,,,0.00,Meteorologica,2013-05-13 02:06:00,
2013-05-12 22:11:00,55.8,36.7,30.15,West,279,0.0,0.0,48,0.00,,,0.00,Meteorologica,2013-05-13 02:11:00,
2013-05-12 22:16:00,55.7,36.6,30.15,West,279,0.0,0.0,48,0.00,,,0.00,Meteorologica,2013-05-13 02:16:00,
2013-05-12 22:22:00,55.4,36.5,30.15,West,279,0.0,0.0,49,0.00,,,0.00,Meteorologica,2013-05-13 02:22:00,
2013-05-12 22:27:00,55.4,36.3,30.15,West,279,0.0,0.0,48,0.00,,,0.00,Meteorologica,2013-05-13 02:27:00,
2013-05-12 22:32:00,55.2,36.2,30.16,West,279,0.0,0.0,48,0.00,,,0.00,Meteorologica,2013-05-13 02:32:00,
2013-05-12 23:00:00,54.2,36.4,30.16,West,279,0.0,0.0,50,0.00,,,0.00,Meteorologica,2013-05-13 03:00:00,
2013-05-12 23:05:00,54.0,37.2,30.16,West,279,0.0,0.0,52,0.00,,,0.00,Meteorologica,2013-05-13 03:05:00,
2013-05-12 23:10:00,53.7,37.1,30.16,West,279,0.0,0.0,53,0.00,,,0.00,Meteorologica,2013-05-13 03:10:00,
2013-05-12 23:15:00,53.5,37.1,30.16,West,279,0.0,0.0,53,0.00,,,0.00,Meteorologica,2013-05-13 03:15:00,
2013-05-12 23:20:00,53.3,36.9,30.16,West,279,0.0,0.0,53,0.00,,,0.00,Meteorologica,2013-05-13 03:20:00,
2013-05-12 23:25:00,53.2,37.2,30.16,West,279,0.0,0.0,54,0.00,,,0.00,Meteorologica,2013-05-13 03:25:00,
2013-05-12 23:30:00,53.2,36.9,30.16,West,279,0.0,0.0,53,0.00,,,0.00,Meteorologica,2013-05-13 03:30:00,
2013-05-12 23:36:00,53.0,36.6,30.17,West,279,0.0,0.0,53,0.00,,,0.00,Meteorologica,2013-05-13 03:36:00,
2013-05-12 23:41:00,52.9,36.5,30.17,West,279,0.0,0.0,53,0.00,,,0.00,Meteorologica,2013-05-13 03:41:00,
2013-05-12 23:46:00,52.8,37.3,30.17,West,279,0.0,0.0,55,0.00,,,0.00,Meteorologica,2013-05-13 03:46:00,
2013-05-12 23:51:00,52.7,37.5,30.17,West,279,0.0,0.0,55,0.00,,,0.00,Meteorologica,2013-05-13 03:51:00,
2013-05-12 23:56:00,52.3,37.4,30.17,West,279,0.0,0.0,56,0.00,,,0.00,Meteorologica,2013-05-13 03:56:00,